Location: Garbet
(42.8837°N, 1.2115°E)
Time: 17:34:47
(UTC+00:00)

GEOS 3 Rocket - Pass Details

Date: 13 December 2025
Orbit: 769 x 845 km, 115.0° (Epoch: 22 January)

Event Time Altitude Azimuth Distance (km) Brightness Sun altitude
Exits shadow 17:18:59 - 36° (NE) 2,632 5.8 -10.3°
Reaches altitude 10° 17:19:24 10° 36° (NE) 2,468 5.6 -10.3°
Maximum altitude 17:24:48 87° 311° (NW) 851 3.7 -11.3°
Drops below altitude 10° 17:30:10 10° 219° (SW) 2,454 7.1 -12.2°
Sets 17:32:28 0° 219° (SW) 3,381 7.9 -12.6°
